XML Sitemap

This is a XML Sitemap which is supposed to be processed by search engines which follow the XML Sitemap standard like Ask.com, Bing, Google and Yahoo.
It was generated using the WordPress content management system and the Google Sitemap Generator Plugin by Arne Brachhold.
You can find more information about XML sitemaps on sitemaps.org and Google's list of sitemap programs.

URLPriorityChange frequencyLast modified (GMT)
https://svolavacky.cz/listing/citroen-spacetourer-2016-4/60%Daily2017-12-25 18:32
https://svolavacky.cz/listing/citroen-jumpy-2016-2017-2/60%Daily2017-12-25 18:23
https://svolavacky.cz/listing/peugeot-expert-2016-2017-2/60%Daily2017-12-25 18:13
https://svolavacky.cz/listing/peugeot-traveller-2016-2017-2/60%Daily2017-12-25 18:03
https://svolavacky.cz/listing/ford-focus-cng-2003-2011/60%Daily2017-12-23 06:31
https://svolavacky.cz/listing/ford-c-max-cng-2003-2011/60%Daily2017-12-23 06:09
https://svolavacky.cz/listing/ford-transit-cng-2003-2011/60%Daily2017-12-23 05:54
https://svolavacky.cz/listing/mercedes-benz-g-class-2015-2017/60%Daily2017-12-22 12:23
https://svolavacky.cz/listing/volkswagen-arteon-2017-2/60%Daily2017-12-22 12:19
https://svolavacky.cz/listing/toyota-rav4-2015-2017/60%Daily2017-12-17 16:39
https://svolavacky.cz/listing/opel-movano-2016-2017/60%Daily2017-12-17 16:20
https://svolavacky.cz/listing/fiat-ducato-2016-2017/60%Daily2017-12-16 10:04
https://svolavacky.cz/listing/toyota-avensis-2016-2/60%Daily2017-12-16 09:46
https://svolavacky.cz/listing/toyota-rav4-2016/60%Daily2017-12-16 09:37
https://svolavacky.cz/listing/nissan-x-trail-2000-2001/60%Daily2017-12-16 09:24
https://svolavacky.cz/listing/nissan-patrol-2000-2001/60%Daily2017-12-16 09:15
https://svolavacky.cz/listing/volkswagen-arteon-2017/60%Daily2017-12-15 07:28
https://svolavacky.cz/listing/volkswagen-golf-2017/60%Daily2017-12-15 07:21
https://svolavacky.cz/listing/volkswagen-passat-2017/60%Daily2017-12-15 07:11
https://svolavacky.cz/listing/citroen-c4-picasso-2016-2017/60%Daily2017-12-15 06:47
https://svolavacky.cz/listing/renault-twingo-2017/60%Daily2017-12-12 05:15
https://svolavacky.cz/listing/peugeot-ion-2010-2017/60%Daily2017-12-10 15:33
https://svolavacky.cz/listing/citroen-c-zero-2010-2017/60%Daily2017-12-10 15:14
https://svolavacky.cz/listing/renault-master-2016-2017/60%Daily2017-12-09 14:50
https://svolavacky.cz/listing/subaru-forester-2009-2010/60%Daily2017-12-08 09:47
https://svolavacky.cz/listing/subaru-impreza-wrx-sti-2008-2014/60%Daily2017-12-08 09:42
https://svolavacky.cz/listing/subaru-outback-2010-2012/60%Daily2017-12-08 09:13
https://svolavacky.cz/listing/subaru-legacy-2010-2012/60%Daily2017-12-08 08:13
https://svolavacky.cz/listing/mercedes-benz-glk-2011-2015/60%Daily2017-12-08 07:32
https://svolavacky.cz/listing/mercedes-benz-glc-2015-2017/60%Daily2017-12-08 07:25
https://svolavacky.cz/listing/mercedes-benz-gla-2013-2017/60%Daily2017-12-08 07:27
https://svolavacky.cz/listing/mercedes-benz-cla-2013-2017/60%Daily2017-12-08 07:28
https://svolavacky.cz/listing/mercedes-benz-class-vito-2014-2017/60%Daily2017-12-08 08:44
https://svolavacky.cz/listing/mercedes-benz-e-class-2011-2017/60%Daily2017-12-08 06:22
https://svolavacky.cz/listing/mercedes-benz-c-class-2011-2017/60%Daily2017-12-08 06:09
https://svolavacky.cz/listing/mercedes-benz-b-class-2011-2017/60%Daily2017-12-08 05:52
https://svolavacky.cz/listing/mercedes-benz-a-class-2011-2017/60%Daily2017-12-08 08:50
https://svolavacky.cz/listing/toyota-prius-phv-2011-2015/60%Daily2017-12-04 07:53
https://svolavacky.cz/listing/nissan-qashqai-2017/60%Daily2017-12-04 06:52
https://svolavacky.cz/listing/toyota-c-hr-2017/60%Daily2017-12-04 06:31
https://svolavacky.cz/listing/audi-q2-2017/60%Daily2017-12-01 18:13
https://svolavacky.cz/listing/audi-a3-2017/60%Daily2017-12-01 17:28
https://svolavacky.cz/listing/citroen-ds3-2017/60%Daily2017-12-01 10:20
https://svolavacky.cz/listing/peugeot-208-2017-2/60%Daily2017-12-01 09:58
https://svolavacky.cz/listing/jeep-compass-2016-2017/60%Daily2017-12-01 09:42
https://svolavacky.cz/listing/volkswagen-t5-cng-2005/60%Daily2017-12-01 09:08